Weather History for KIPJ - April, 2013

Change the Weather History Date:

Sunday, April 7, 2013

  Actual Average (KCLT) Record (KCLT)
Temperature  
Mean Temperature 53 °F 57 °F  
Max Temperature 71 °F 70 °F 89 °F (1929)
Min Temperature 35 °F 45 °F 25 °F (2007)
Degree Days  
Heating Degree Days 12 8  
Month to date heating degree days 64  
Since 1 July heating degree days 3196  
Cooling Degree Days 0 1  
Month to date cooling degree days 6  
Year to date cooling degree days 11  
Growing Degree Days 3 (Base 50)    
Moisture  
Dew Point 40 °F    
Average Humidity 60    
Maximum Humidity 100    
Minimum Humidity 29    
Precipitation  
Precipitation 0.00 in 0.11 in 1.74 in (2014)
Month to date precipitation 0.75  
Year to date precipitation 11.49  
Snow  
Snow 0.00 in 0.00 in 0.00 in ()
Month to date snowfall 0.1  
Since 1 July snowfall 4.4  
Snow Depth -    
Sea Level Pressure  
Sea Level Pressure 30.18 in    
Wind  
Wind Speed 4 mph (SSW)    
Max Wind Speed 13 mph    
Max Gust Speed 23 mph    
Visibility 10 miles    
Events      
T = Trace of Precipitation, MM = Missing Value Source: NWS Daily Summary

Daily Weather History Graph

Daily Weather History Graph

Search for Another Location

Airport or City:

Trip Planner

Search our weather history database for the weather conditions in past years. The results will help you decide how hot, cold, wet, or windy it might be!

Date:

Astronomy

Apr. 07, 2013 Rise Set
Actual Time 7:02 AM EDT 7:51 PM EDT
Civil Twilight 6:36 AM EDT 8:17 PM EDT
Nautical Twilight 6:06 AM EDT 8:47 PM EDT
Astronomical Twilight 5:34 AM EDT 9:19 PM EDT
Moon 5:13 AM EDT (4/7) 5:26 PM EDT (4/7)
Length of Visible Light 13h 40m
Length of Day
12h 48m
Waning Crescent, 8% of the Moon is Illuminated
Apr 7
Waning Crescent
Apr 10
New
Apr 18
First Quarter
Apr 25
Full
May 2
Last Quarter

Hourly Weather History & Observations

Time (EDT) Temp. Dew Point Humidity Pressure Visibility Wind Dir Wind Speed Gust Speed Precip Events Conditions
12:15 AM 50.0 °F 35.6 °F 58% 30.20 in 10.0 mi SSW 3.5 mph - N/A   Clear
12:35 AM 51.8 °F 33.8 °F 50% 30.20 in 10.0 mi South 3.5 mph - N/A   Clear
12:55 AM 51.8 °F 35.6 °F 54% 30.19 in 10.0 mi South 4.6 mph - N/A   Clear
1:15 AM 51.8 °F 37.4 °F 58% 30.20 in 10.0 mi SSW 4.6 mph - N/A   Clear
1:35 AM 51.8 °F 37.4 °F 58% 30.20 in 10.0 mi SSW 5.8 mph - N/A   Clear
1:55 AM 53.6 °F 37.4 °F 54% 30.20 in 10.0 mi SSW 3.5 mph - N/A   Clear
2:15 AM 51.8 °F 39.2 °F 62% 30.20 in 10.0 mi SSW 3.5 mph - N/A   Clear
2:35 AM 51.8 °F 39.2 °F 62% 30.20 in 10.0 mi SSW 3.5 mph - N/A   Clear
2:55 AM 50.0 °F 39.2 °F 66% 30.20 in 10.0 mi SW 3.5 mph - N/A   Clear
3:15 AM 50.0 °F 39.2 °F 66% 30.19 in 10.0 mi Calm Calm - N/A   Clear
3:35 AM 50.0 °F 37.4 °F 62% 30.19 in 10.0 mi Calm Calm - N/A   Clear
3:55 AM 48.2 °F 37.4 °F 66% 30.19 in 10.0 mi Calm Calm - N/A   Clear
4:15 AM 44.6 °F 37.4 °F 76% 30.20 in 10.0 mi Calm Calm - N/A   Clear
4:35 AM 42.8 °F 37.4 °F 81% 30.20 in 10.0 mi Calm Calm - N/A   Clear
4:55 AM 42.8 °F 37.4 °F 81% 30.21 in 10.0 mi Calm Calm - N/A   Scattered Clouds
5:15 AM 41.0 °F 37.4 °F 87% 30.21 in 10.0 mi Calm Calm - N/A   Scattered Clouds
5:35 AM 41.0 °F 37.4 °F 87% 30.21 in 10.0 mi Calm Calm - N/A   Scattered Clouds
5:55 AM 41.0 °F 37.4 °F 87% 30.21 in 10.0 mi Calm Calm - N/A   Mostly Cloudy
6:15 AM 39.2 °F 37.4 °F 93% 30.22 in 10.0 mi Calm Calm - N/A   Mostly Cloudy
6:35 AM 37.4 °F 37.4 °F 100% 30.22 in 10.0 mi Calm Calm - N/A   Scattered Clouds
6:55 AM 39.2 °F 37.4 °F 93% 30.23 in 10.0 mi Calm Calm - N/A   Clear
7:15 AM 35.6 °F 35.6 °F 100% 30.23 in 10.0 mi Calm Calm - N/A   Clear
7:35 AM 37.4 °F 37.4 °F 100% 30.24 in 10.0 mi Calm Calm - N/A   Clear
7:55 AM 41.0 °F 39.2 °F 93% 30.25 in 10.0 mi Calm Calm - N/A   Clear
8:15 AM 44.6 °F 39.2 °F 81% 30.25 in 10.0 mi Calm Calm - N/A   Clear
8:35 AM 46.4 °F 39.2 °F 76% 30.25 in 10.0 mi Calm Calm - N/A   Clear
8:55 AM 50.0 °F 41.0 °F 71% 30.25 in 10.0 mi South 4.6 mph - N/A   Clear
9:15 AM 51.8 °F 42.8 °F 71% 30.25 in 10.0 mi South 5.8 mph - N/A   Clear
9:35 AM 53.6 °F 42.8 °F 67% 30.25 in 10.0 mi SW 5.8 mph - N/A   Clear
9:55 AM 53.6 °F 42.8 °F 67% 30.25 in 10.0 mi South 6.9 mph - N/A   Clear
10:15 AM 55.4 °F 42.8 °F 63% 30.26 in 10.0 mi SSW 5.8 mph - N/A   Clear
10:35 AM 57.2 °F 44.6 °F 63% 30.25 in 10.0 mi South 5.8 mph - N/A   Clear
10:55 AM 59.0 °F 44.6 °F 59% 30.25 in 10.0 mi WSW 3.5 mph - N/A   Clear
11:15 AM 59.0 °F 44.6 °F 59% 30.25 in 10.0 mi SW 5.8 mph - N/A   Clear
11:35 AM 59.0 °F 44.6 °F 59% 30.25 in 10.0 mi SSW 4.6 mph - N/A   Clear
11:55 AM 60.8 °F 44.6 °F 55% 30.24 in 10.0 mi SSW 6.9 mph - N/A   Clear
12:15 PM 62.6 °F 44.6 °F 52% 30.23 in 10.0 mi SW 4.6 mph - N/A   Clear
12:35 PM 64.4 °F 44.6 °F 49% 30.22 in 10.0 mi WNW 6.9 mph - N/A   Clear
12:55 PM 64.4 °F 42.8 °F 45% 30.22 in 10.0 mi WSW 10.4 mph - N/A   Clear
1:15 PM 68.0 °F 41.0 °F 37% 30.20 in 10.0 mi SSW 8.1 mph - N/A   Clear
1:35 PM 68.0 °F 42.8 °F 40% 30.19 in 10.0 mi South 5.8 mph - N/A   Clear
1:55 PM 68.0 °F 42.8 °F 40% 30.18 in 10.0 mi SSW 8.1 mph - N/A   Scattered Clouds
2:15 PM 68.0 °F 39.2 °F 35% 30.17 in 10.0 mi South 11.5 mph 18.4 mph N/A   Clear
2:35 PM 68.0 °F 41.0 °F 37% 30.16 in 10.0 mi South 9.2 mph - N/A   Scattered Clouds
2:55 PM 69.8 °F 39.2 °F 33% 30.15 in 10.0 mi SSW 12.7 mph 23.0 mph N/A   Scattered Clouds
3:15 PM 69.8 °F 39.2 °F 33% 30.14 in 10.0 mi SW 9.2 mph - N/A   Scattered Clouds
3:35 PM 69.8 °F 39.2 °F 33% 30.13 in 10.0 mi South 9.2 mph - N/A   Scattered Clouds
3:55 PM 69.8 °F 37.4 °F 31% 30.12 in 10.0 mi SSW 6.9 mph - N/A   Scattered Clouds
4:15 PM 71.6 °F 37.4 °F 29% 30.12 in 10.0 mi SW 4.6 mph - N/A   Scattered Clouds
4:35 PM 69.8 °F 39.2 °F 33% 30.12 in 10.0 mi SW 12.7 mph 19.6 mph N/A   Clear
4:55 PM 69.8 °F 37.4 °F 31% 30.11 in 10.0 mi SW 11.5 mph 19.6 mph N/A   Clear
5:15 PM 71.6 °F 39.2 °F 31% 30.11 in 10.0 mi SW 11.5 mph 18.4 mph N/A   Clear
5:35 PM 69.8 °F 37.4 °F 31% 30.11 in 10.0 mi SW 11.5 mph 18.4 mph N/A   Clear
5:55 PM 69.8 °F 39.2 °F 33% 30.10 in 10.0 mi SW 4.6 mph - N/A   Clear
6:15 PM 68.0 °F 41.0 °F 37% 30.11 in 10.0 mi SW 11.5 mph - N/A   Clear
6:35 PM 69.8 °F 39.2 °F 33% 30.11 in 10.0 mi SW 8.1 mph - N/A   Clear
6:55 PM 69.8 °F 41.0 °F 35% 30.11 in 10.0 mi SW 9.2 mph - N/A   Clear
7:15 PM 68.0 °F 41.0 °F 37% 30.11 in 10.0 mi WSW 6.9 mph - N/A   Clear
7:35 PM 66.2 °F 41.0 °F 40% 30.11 in 10.0 mi SW 4.6 mph - N/A   Clear
7:55 PM 62.6 °F 42.8 °F 48% 30.11 in 10.0 mi Calm Calm - N/A   Clear
8:15 PM 64.4 °F 42.8 °F 45% 30.11 in 10.0 mi WSW 3.5 mph - N/A   Clear
8:35 PM 62.6 °F 42.8 °F 48% 30.11 in 10.0 mi Calm Calm - N/A   Clear
8:55 PM 55.4 °F 44.6 °F 67% 30.12 in 10.0 mi Calm Calm - N/A   Clear
9:15 PM 55.4 °F 42.8 °F 63% 30.13 in 10.0 mi Calm Calm - N/A   Clear
9:35 PM 59.0 °F 42.8 °F 55% 30.13 in 10.0 mi SW 3.5 mph - N/A   Clear
9:55 PM 53.6 °F 44.6 °F 72% 30.13 in 10.0 mi Calm Calm - N/A   Clear
10:15 PM 51.8 °F 44.6 °F 76% 30.13 in 10.0 mi Calm Calm - N/A   Clear
10:35 PM 51.8 °F 44.6 °F 76% 30.13 in 10.0 mi Calm Calm - N/A   Clear
10:55 PM 51.8 °F 44.6 °F 76% 30.13 in 10.0 mi Calm Calm - N/A   Clear
11:15 PM 51.8 °F 44.6 °F 76% 30.12 in 10.0 mi Calm Calm - N/A   Clear
11:35 PM 50.0 °F 44.6 °F 82% 30.12 in 10.0 mi Calm Calm - N/A   Clear
11:55 PM 50.0 °F 44.6 °F 82% 30.12 in 10.0 mi Calm Calm - N/A   Clear